Location: Stonelick Lake State Park
(39.2170°N, 84.0850°W)
Time: 05:26:47
(UTC-04:00)

Daily predictions for brighter satellites

Satellite Brightness Start Highest point End
(mag) Time Altitude Azimuth Time Altitude Azimuth Time Altitude Azimuth
Terra 3.7 00:23:55 25° WNW 00:23:55 25° WNW 00:26:27 10° NNW
Cosmos 1709 Rocket 4.3 00:16:18 10° N 00:21:36 64° N 00:21:36 64° N
ATLAS 3B R/B 3.5 00:28:49 10° NNW 00:35:08 40° NE 00:35:08 40° NE
ATLAS CENTAUR R/B 4.3 00:42:33 13° NNE 00:42:33 13° NNE 00:43:03 10° NNE
Cosmos 2369 Rocket 4.1 00:36:54 10° N 00:40:34 21° NE 00:40:34 21° NE
USA 238 DEB 4.5 00:52:50 10° NNW 00:59:34 44° NE 00:59:41 44° NE
USA 238 4.5 00:52:56 10° NNW 00:59:40 44° NE 00:59:49 44° NE
SL-16 R/B 3.5 01:04:06 35° NW 01:04:06 35° NW 01:08:18 10° N
CZ-2C R/B 4.0 01:22:38 10° N 01:25:58 37° N 01:25:58 37° N
Cosmos 1943 4.5 01:58:32 36° NNE 01:58:32 36° NNE 02:01:50 10° NNE
ATLAS 2AS CENTAUR R/B 3.9 01:55:32 36° WNW 01:57:17 40° NW 02:04:51 10° NNE
NOSS 3-2 (A) 4.2 02:03:09 10° NNW 02:10:39 65° NE 02:11:09 63° ENE
Cosmos 2369 Rocket 3.9 02:20:03 10° NNW 02:22:20 25° NW 02:22:20 25° NW
ATLAS 3B R/B 4.2 02:19:41 10° NW 02:22:22 23° WNW 02:22:22 23° WNW
BREEZE M DEB (TANK) 4.4 02:01:40 10° WNW 02:27:19 87° NNE 02:28:58 63° ESE
Cosmos 1943 Rocket 3.4 02:27:16 10° NNW 02:30:31 36° NNW 02:30:31 36° NNW
Lacrosse 5 rocket 3.9 02:52:20 20° ENE 02:52:20 20° ENE 02:53:54 10° ENE
USA 215 3.2 02:54:15 10° NE 03:00:37 78° NNW 03:00:37 78° NNW
COSMOS 2406 3.8 03:02:16 53° ENE 03:02:16 53° ENE 03:06:49 10° NNE
Cosmos 1656 Rocket 4.4 03:03:35 10° NNW 03:07:22 46° N 03:07:22 46° N
Cosmos 1680 Rocket 4.3 03:16:50 46° NNW 03:16:50 46° NNW 03:20:41 10° NNE
ADEOS Rocket 4.3 03:11:15 10° NNE 03:16:54 34° E 03:18:34 30° SE
RESURS DK-1 4.4 03:21:41 26° N 03:21:41 26° N 03:23:39 10° NNE
NOSS 3-2 (C) 4.0 03:15:10 10° NW 03:22:05 62° W 03:22:05 62° W
CENTAUR R/B 3.7 03:15:03 10° NNW 03:22:48 56° NE 03:31:02 10° SE
USA 267 4.2 03:26:02 10° ESE 03:32:12 46° NNE 03:38:22 10° NW
Resurs 1-4 Rocket 2.9 03:29:57 10° NNE 03:34:55 41° E 03:35:17 41° ESE
IRS-1D 4.2 03:34:10 10° NNE 03:39:12 47° E 03:39:35 46° ESE
COSMOS 2455 3.5 03:33:21 10° NW 03:37:27 43° NW 03:37:27 43° NW
SL-16 R/B 2.9 03:39:58 37° SE 03:42:21 62° ENE 03:48:25 10° N
ARIANE 5 R/B 3.1 03:39:15 10° NNE 03:44:18 48° E 03:44:46 47° ESE
ADEOS 4.1 03:40:22 10° NNE 03:45:27 50° E 03:45:53 49° ESE
SL-08 R/B 4.2 03:47:23 41° NNW 03:47:23 41° NNW 03:50:35 10° NNW
NOSS 2-2 (D) 4.3 03:47:55 49° NE 03:47:55 49° NE 03:51:20 10° NE
NPP 3.8 03:42:56 10° N 03:47:51 60° NW 03:47:51 60° NW
Cosmos 1371 Rocket 4.2 03:44:03 10° NNW 03:48:38 64° NW 03:48:38 64° NW
Cosmos 1953 3.5 03:46:56 10° N 03:49:46 41° NNE 03:49:46 41° NNE
CZ-2D R/B 2.2 03:50:29 10° NNE 03:55:44 64° ESE 03:56:19 60° SE
Cosmos 921 Rocket 3.4 03:54:34 10° NNW 03:58:27 63° N 03:58:27 63° N
NOSS 2-2 (C) 4.0 04:05:48 54° NNW 04:05:48 54° NNW 04:09:44 10° NNE
Cosmos 1758 Rocket 3.7 04:06:30 67° N 04:06:30 67° N 04:10:17 10° N
Cosmos 839 Rocket 4.4 04:02:36 10° NNW 04:08:59 72° ENE 04:16:34 10° SE
COSMOS 2487 3.8 04:10:22 38° ENE 04:10:22 38° ENE 04:13:12 10° NNE
Cosmos 1758 4.4 04:05:44 10° NNW 04:08:25 39° NNW 04:08:25 39° NNW
Cosmos 1271 Rocket 4.4 04:10:00 10° NNW 04:11:44 25° NNW 04:11:44 25° NNW
Cosmos 1818 3.6 04:14:38 58° W 04:15:15 63° WNW 04:20:41 10° NNE
CZ-2D R/B 4.2 04:17:09 10° NNE 04:21:02 44° E 04:21:47 39° SE
Cosmos 1833 Rocket 3.6 04:21:58 26° SSE 04:24:37 43° ESE 04:29:53 10° NE
Cosmos 1953 Rocket 4.0 04:28:15 46° WNW 04:28:15 46° WNW 04:32:15 10° N
Lacrosse 5 rocket 2.7 04:28:02 30° WNW 04:28:52 32° NW 04:33:05 10° NNE
Cosmos 2082 Rocket 2.8 04:27:14 29° SSE 04:29:53 53° ESE 04:35:25 10° NNE
GEOS 3 Rocket 3.6 04:27:10 10° NNE 04:32:28 78° NW 04:34:03 47° SW
DNEPR-1 R/B 3.5 04:28:28 10° NNW 04:32:42 84° ENE 04:37:16 10° SSE
UNK 4.1 04:34:25 44° W 04:34:25 44° W 04:38:20 10° NNW
ADEOS II 4.1 04:31:08 10° NE 04:35:17 23° E 04:39:25 10° SSE
Meteor 2-5 Rocket 3.8 04:37:49 27° S 04:41:01 78° E 04:46:53 10° NNE
Cosmos 1727 Rocket 3.9 04:45:02 32° SSW 04:48:04 70° W 04:54:14 10° N
COBE Rocket 4.3 04:44:56 10° N 04:49:43 47° WNW 04:50:59 38° WSW
Cosmos 1378 3.0 04:49:57 51° S 04:50:51 90° WNW 04:54:36 10° N
Cosmos 158 Rocket 4.3 04:48:18 23° S 04:51:19 59° ESE 04:56:24 10° NNE
Cosmos 389 Rocket 3.0 04:48:41 10° NNW 04:51:41 43° WNW 04:51:41 43° WNW
GPS 2-05 Rocket1 3.6 04:52:42 38° SSE 04:52:42 38° SSE 04:55:49 10° E
Cosmos 2098 Rocket 3.6 04:50:25 10° NNW 04:51:55 25° NW 04:51:55 25° NW
Cosmos 1707 2.9 04:53:47 48° WSW 04:54:11 51° W 04:57:59 10° N
Meteor 1-16 Rocket 4.0 04:52:39 10° N 04:58:02 89° E 05:03:20 10° S
Cosmos 1153 Rocket 4.4 04:53:42 10° NNW 04:59:48 70° W 05:05:49 10° S
CZ-4B R/B 4.4 04:57:34 10° NNE 05:01:43 39° E 05:05:56 10° SSE
ADEOS Rocket 3.8 04:56:43 10° N 05:02:22 39° WNW 05:05:31 25° WSW
Cosmos 1470 3.8 05:06:45 10° NNW 05:09:57 26° W 05:09:57 26° W
CENTAUR R/B 3.6 05:06:10 10° NW 05:13:24 37° WSW 05:20:56 10° S
Resurs 1-4 Rocket 3.4 05:10:20 10° NNW 05:14:29 24° WNW 05:16:22 20° W
Cosmos 1459 Rocket 4.0 05:08:18 10° N 05:14:31 88° E 05:20:48 10° S
USA 267 3.3 05:08:43 10° SSE 05:15:05 54° SW 05:21:29 10° NW
MOS 1-B 4.3 05:11:24 10° N 05:17:14 76° WNW 05:22:16 14° SSW
USA 161 2.3 05:18:45 31° W 05:18:45 31° W 05:21:05 10° NNW
Cosmos 1802 Rocket 4.2 05:12:32 10° N 05:19:00 81° E 05:25:23 10° S
Okean O Rocket 2.1 05:14:46 10° NNE 05:19:10 61° E 05:23:30 10° S
Orbus 7S? 2.4 05:16:44 10° NW 05:19:54 86° NE 05:22:30 10° SE
ARIANE 5 R/B 4.0 05:19:14 10° NNW 05:23:02 21° WNW 05:25:07 17° W
SL-16 R/B 3.8 05:25:02 18° WSW 05:26:22 19° W 05:30:40 10° NW
UNKNOWN OBJECT B 4.2 05:23:43 10° NNW 05:26:56 23° WNW 05:28:20 19° W
Meteor 2-17 Rocket 4.4 05:20:51 10° N 05:26:56 88° W 05:33:00 10° S
Cosmos 1452 Rocket 4.3 05:25:24 10° NW 05:29:56 30° W 05:34:26 10° SSW
Cosmos-2242 4.4 05:27:50 10° NW 05:31:00 20° W 05:32:00 18° WSW
Meteor 1-24 Rocket 3.7 05:27:00 12° SSW 05:32:02 63° WNW 05:37:42 10° N
Delta 2 Rocket 4.0 05:33:16 21° SW 05:34:12 24° SSW 05:36:58 10° SE
CZ-2D R/B 3.8 05:32:06 10° NNW 05:35:14 16° WNW 05:37:39 12° W
MOS 1 Rocket 3.9 05:32:43 10° N 05:36:41 34° WNW 05:39:48 16° SW
OE (NEXTSAT) 4.4 05:34:34 21° SW 05:36:49 78° SSE 05:40:22 10° ENE
Tiangong 1 2.3 05:37:47 19° SSW 05:37:47 19° SSW 05:39:51 10° SSE
Cosmos 1697 Rocket 2.6 05:32:36 10° NNW 05:38:11 69° WSW 05:43:43 10° SSE
DELTA 2 R/B(2) 3.7 05:40:58 27° SSW 05:41:26 34° SSE 05:43:05 10° E
Cosmos 1842 Rocket 4.3 05:39:37 10° NNW 05:43:35 33° W 05:47:34 10° SSW
Timation 2 Rocket 4.2 05:38:25 12° SW 05:44:42 64° WNW 05:51:05 10° NNE
PSLV R/B 3.5 05:40:46 10° NNE 05:45:09 88° WNW 05:49:27 10° SSW
CZ-4B DEB 4.2 05:41:28 10° NNE 05:46:59 88° WNW 05:52:26 10° SSW
GENESIS II 4.1 05:43:22 10° NNW 05:47:21 86° WSW 05:51:14 10° SSE
SL-24 R/B 4.2 05:45:43 10° NNE 05:50:16 83° E 05:54:29 10° S
Cosmos 2221 2.4 05:46:41 10° NNW 05:50:58 72° W 05:55:11 10° S
MTI 3.7 05:56:53 10° S 06:00:07 74° W 06:03:21 10° NNW
Cosmos 1110 Rocket 4.0 05:56:06 10° NNW 06:01:27 87° WSW 06:06:43 10° SSE
Cosmos 1674 2.7 05:57:54 10° S 06:01:40 88° W 06:05:32 10° N
Cosmos 1656 4.4 05:57:25 10° NW 06:01:59 28° WSW 06:06:33 10° SSW
Cosmos 2173 Rocket 4.5 05:56:32 10° NNW 06:02:14 38° W 06:07:52 10° SSW
EO 1 Del DPAF 3.2 06:00:18 10° S 06:04:07 65° WSW 06:07:58 10° NNW
Cosmos 2322 Rocket 3.8 05:59:25 10° N 06:04:48 41° ENE 06:10:09 10° SE
IRS-1C Rocket 4.3 06:02:51 10° N 06:08:00 54° WNW 06:13:07 10° SSW
Cosmos 1833 Rocket 3.9 06:04:00 10° WSW 06:08:41 27° WNW 06:13:23 10° N
Meteor PRIRODA 3.6 06:05:14 10° NNE 06:08:56 88° WNW 06:12:36 10° SSW
IRAS Rocket 4.3 06:03:40 10° NNE 06:09:20 86° WNW 06:14:58 10° SSW
Lacrosse 5 rocket 4.2 06:08:17 10° NNW 06:09:27 11° NNW 06:10:36 10° N
CZ-3 R/B 3.6 05:54:35 10° SW 06:09:49 29° S 06:15:20 10° ESE
Cosmos 1184 Rocket 3.0 06:08:45 10° S 06:12:06 79° E 06:15:27 10° NNE
Cosmos 1980 Rocket 2.3 06:07:42 10° NNW 06:13:17 60° WSW 06:18:49 10° S
Cosmos 2082 Rocket 3.6 06:09:50 10° WSW 06:14:17 23° NW 06:18:45 10° N
ADEOS II 2.6 06:10:14 10° N 06:15:07 40° WNW 06:20:00 10° SW
